Location: Roland
(31.1349°N, 85.4372°W)
Time: 19:23:46
(UTC+00:00)

SR - Pass Details

Date: 19 April 2021
Orbit: 573 x 882 km, 66.7° (Epoch: 13 May)

Event Time Altitude Azimuth Distance (km) Brightness Sun altitude
Rises 21:01:42 0° 354° (N) 3,446 ? 39.8°
Reaches altitude 10° 21:05:33 10° 18° (NNE) 2,464 ? 38.9°
Maximum altitude 21:08:30 14° 49° (NE) 2,133 ? 38.3°
Drops below altitude 10° 21:11:21 10° 81° (E) 2,370 ? 37.7°
Sets 21:14:54 0° 106° (ESE) 3,226 ? 37.0°
